Flag for Thailand Weather past 2 weeks in Phuket, Thailand

Now
88 °F

Scattered clouds.


Feels Like: 98 °F
Forecast: 76 / 88 °F
Wind: 9 mph from West

Location: Phuket Airport

Current Time: Sep 2, 2015 at 11:51:00 AM

Latest Report: Sep 2, 2015 at 11:00 AM


Visibility: N/A

Pressure: 29.89 "Hg

Humidity: 66%

Dew point: 75 °F

Location of PhuketLocation

Historic Weather in Phuket — Graph

°F

Phuket temperature yesterday

Maximum temperature yesterday: 86 °F (at 1:30 PM)
Minimum temperature yesterday: 77 °F (at 3:00 AM)
Average temperature yesterday: 81 °F

Past Weeks' High & Low Weather Summary

 TemperatureHumidityPressure
High90 °F (Aug 26, 1:30 PM)100% (Aug 27, 4:00 PM)29.95 "Hg (Aug 27, 4:00 PM)
Low37 °F (Aug 27, 4:00 PM)59% (Aug 18, 10:30 AM)29.62 "Hg (Aug 19, 4:30 PM)
Average82 °F78%29.86 "Hg
* Reported Aug 18 10:00 AM — Sep 2 10:00 AM, Phuket, Weather by CustomWeather, © 2015

Note: Actual official high and low records may vary slightly from our data, if they occured in-between our weather recording intervals... More about our weather records

Advertising

Phuket weather history for previous 24 hours

 ConditionsComfort  
Time TempWeatherWind HumidityBarometerVisibility
10:00 AM
Wed, Sep 2
88 °FScattered clouds.6 mph66%N/AN/A
9:30 AM88 °FScattered clouds.6 mph66%29.89 "HgN/A
9:00 AM86 °FScattered clouds.No wind66%29.89 "HgN/A
8:00 AM81 °FPartly sunny.1 mph84%29.86 "HgN/A
7:30 AM77 °FPartly sunny.2 mph94%29.86 "HgN/A
7:00 AM75 °FPartly sunny.1 mph89%29.86 "HgN/A
6:30 AM75 °FPartly sunny.2 mph89%29.86 "Hg5 mi
6:00 AM75 °FPassing clouds.1 mph89%29.86 "Hg5 mi
5:30 AM75 °FPartly cloudy.2 mph89%29.86 "Hg5 mi
4:30 AM77 °FPassing clouds.1 mph94%29.86 "HgN/A
4:00 AM77 °FPassing clouds.2 mph89%29.86 "HgN/A
3:30 AM77 °FPassing clouds.1 mph94%29.86 "HgN/A
3:00 AM77 °FPassing clouds.1 mph94%29.86 "HgN/A
2:30 AM77 °FPassing clouds.No wind94%29.89 "HgN/A
2:00 AM77 °FPassing clouds.1 mph94%29.89 "HgN/A
1:30 AM77 °FPassing clouds.No wind94%29.89 "HgN/A
1:00 AM77 °FPassing clouds.No wind94%29.89 "HgN/A
12:30 AM77 °FPassing clouds.2 mph94%29.89 "HgN/A
12:00 AM77 °FPassing clouds.No wind94%29.89 "HgN/A
11:30 PM
Tue, Sep 1
77 °FPassing clouds.2 mph94%29.92 "HgN/A
11:00 PM77 °FPassing clouds.No wind94%29.89 "HgN/A
10:00 PM79 °FPassing clouds.No wind89%29.89 "HgN/A
9:30 PM81 °FPassing clouds.3 mph84%29.89 "HgN/A
9:00 PM81 °FPassing clouds.3 mph84%29.89 "HgN/A
8:30 PM79 °FPassing clouds.No wind89%29.86 "HgN/A
8:00 PM81 °FPassing clouds.No wind84%29.86 "HgN/A
7:30 PM81 °FPartly cloudy.No wind84%29.86 "HgN/A
7:00 PM81 °FPassing clouds.No wind84%29.83 "HgN/A
6:30 PM82 °FPartly sunny.6 mph74%29.83 "HgN/A
6:00 PM82 °FPartly sunny.6 mph74%29.83 "HgN/A
5:30 PM82 °FPartly sunny.6 mph74%29.83 "HgN/A
5:00 PM84 °FPartly sunny.9 mph70%29.80 "HgN/A
4:30 PM84 °FPartly sunny.7 mph70%29.80 "HgN/A
4:00 PM84 °FPartly sunny.7 mph70%29.80 "HgN/A
3:30 PM86 °FPartly sunny.6 mph66%29.83 "HgN/A
3:00 PM86 °FPartly sunny.8 mph62%29.83 "HgN/A
2:00 PM86 °FBroken clouds.6 mph62%29.83 "HgN/A
1:30 PM86 °FPartly sunny.8 mph62%29.83 "HgN/A
1:00 PM84 °FPartly sunny.9 mph66%29.86 "HgN/A
12:30 PM84 °FPartly sunny.12 mph66%29.86 "HgN/A
12:00 PM84 °FPartly sunny.9 mph70%29.89 "HgN/A
11:30 AM84 °FPartly sunny.9 mph70%29.89 "HgN/A
Weather by CustomWeather, © 2015

See weather overviewHow to use our weather pages